Regional Weather Roundup
Issued by NWS Sioux Falls, SD

Home | Current Version | Previous Version | Text Only | Print | Product List | Glossary On
Versions: 1 2 3 4 5 6 7 8 9 10 11 12 13 14 15 16 17 18 19 20 21 22 23 24 25 26 27 28 29 30 31 32 33 34 35 36 37 38 39 40 41 42 43 44 45 46 47 48 49 50
000
ASUS43 KFSD 122210
RWRFSD

WEATHER ROUNDUP FOR SE SOUTH DAKOTA/SW MINNESOTA/NW IOWA
NATIONAL WEATHER SERVICE SIOUX FALLS SD
400 PM CST TUE DEC 12 2017

NOTE: "FAIR" INDICATES FEW OR NO CLOUDS BELOW 12,000 FEET WITH NO
SIGNIFICANT WEATHER AND OR OBSTRUCTIONS TO VISIBILITY.


SDZ038>040-050-052>070-122300-
SOUTHEAST SOUTH DAKOTA

CITY           SKY/WX    TMP DP  RH WIND       PRES   REMARKS
BROOKINGS      CLEAR     40  29  64 SW13      29.89F
CHAMBERLAIN    CLEAR     55  21  26 W6        29.91F
HURON          CLEAR     47  26  44 SW10      29.87F
MADISON        FAIR      39  32  75 SW16      29.89F
MITCHELL       CLEAR     47  30  51 SW10      29.92F
SIOUX FALLS    PTCLDY    41  30  65 SW9       29.92F
WINNER         FAIR      59  19  21 W8        29.93F
YANKTON        CLEAR     45  28  51 SW7       29.97F
$$

MNZ071-072-080-081-089-090-097-098-122300-
SOUTHWEST MINNESOTA

CITY           SKY/WX    TMP DP  RH WIND       PRES   REMARKS
FAIRMONT       CLEAR     34  25  69 SW10      29.94F WCI  26
JACKSON        CLEAR     34  27  75 MISG      29.93F
LUVERNE        CLEAR     36  28  75 SW15      29.94F
MARSHALL       CLEAR     40  28  62 SW15      29.87F
MONTEVIDEO     PTCLDY    45  30  57 W9        29.86F
PIPESTONE      CLEAR     37  28  70 W12       29.89F
REDWOOD FALLS  CLEAR     39  28  64 SW9       29.89F
TRACY          CLEAR     38  31  76 SW15      29.88F
WINDOM           N/A     36  21  55 SW9       29.92F
WORTHINGTON    CLEAR     35  27  72 SW17      29.92F WCI  25
$$

IAZ001>003-012>014-020>022-031-032-NEZ013-014-SDZ071-122300-
NORTHWEST IOWA

CITY           SKY/WX    TMP DP  RH WIND       PRES   REMARKS
CHEROKEE       CLEAR     36  24  61 SW12      30.00F
DENISON        CLEAR     36  23  60 SW12      30.06F
ESTHERVILLE    PTCLDY    35  26  69 SW17      29.94F WCI  25
LE MARS        PTCLDY    39  28  65 S9        29.99F
ORANGE CITY    CLEAR     39  30  70 SW12      29.98F
SHELDON        CLEAR     37  28  70 SW13G20   29.95F
SIOUX CITY     CLEAR     45  28  51 W7        30.02F
SPENCER        PTCLDY    38  25  59 SW13      29.97F
STORM LAKE     CLEAR     36  23  60 SW15      30.00F
$$

ABBREVIATIONS USED IN REMARKS
   TC - TEMPERATURE IN CELSIUS
  WCI - WIND CHILL INDEX
   HX - HEAT INDEX
  VSB - VISIBILITY




USA.gov is the U.S. government's official web portal to all federal, state and local government web resources and services.